GFSSE_con_mlcape_000.txt.gz
CAPE
0 0 85 327 123 1 0 0 0 0 0 0 0 0 0 0 0 0 0 0 0 0 0 0 0 0 0 0 0 0 0 0 0 44 450 371 313 317 376 229 341 842 596
0 0 62 303 122 0 0 0 0 0 0 0 0 0 0 0 0 0 0 0 0 0 0 0 0 0 0 0 0 0 0 0 0 0 144 352 356 386 340 318 209 360 709
0 0 111 166 95 0 0 0 1 0 0 0 0 0 0 0 0 0 0 0 0 0 0 0 0 0 0 0 0 0 0 0 0 0 0 174 168 295 360 251 262 266 481
0 0 20 78 54 12 9 9 42 17 0 0 0 0 0 0 0 0 0 1 7 14 6 0 0 1 0 0 0 2 5 3 0 0 0 38 107 351 335 343 184 252 388
0 3 11 42 109 80 57 33 57 115 76 27 2 0 0 0 20 84 9 0 6 18 112 55 11 0 1 2 0 0 0 0 0 0 0 0 54 240 392 207 299 169 270
0 50 32 113 149 147 126 84 175 204 215 211 172 141 191 242 224 58 20 65 58 100 12 12 28 115 40 0 4 3 7 0 9 0 0 0 7 125 467 275 202 228 266
25 88 116 210 214 196 163 172 224 239 239 375 423 328 501 400 360 228 144 107 71 75 47 18 13 12 82 76 37 16 4 67 18 0 0 0 0 104 329 530 257 265 124
26 74 104 338 215 260 216 357 393 308 270 317 675 668 722 545 488 293 216 125 117 66 4 11 17 17 33 64 28 44 39 105 36 10 0 0 0 114 372 621 327 270 264
12 37 83 333 360 306 491 603 432 217 327 500 589 407 287 112 16 0 0 6 29 41 27 25 26 30 32 33 73 37 49 82 68 33 0 0 0 214 592 684 449 356 396
19 36 68 208 373 548 803 706 476 431 396 106 130 24 0 0 0 0 0 1 6 11 13 12 7 3 14 31 46 56 78 44 60 60 6 0 0 181 618 811 837 571 547
58 85 123 241 365 452 679 720 867 436 259 191 27 0 1 0 0 0 0 0 0 4 8 8 5 6 5 6 35 65 74 25 16 0 60 11 0 42 624 770 824 662 564
38 116 157 257 323 390 475 570 515 317 260 24 0 0 1 0 0 0 0 0 5 25 31 40 85 31 26 3 5 104 58 0 0 0 11 90 106 182 671 711 764 643 612
6 102 166 317 325 335 240 100 244 63 11 0 0 0 0 0 0 0 0 0 0 0 0 0 0 9 39 44 0 0 15 0 0 0 17 110 179 374 636 767 750 642 639
0 23 121 347 263 177 71 14 1 0 0 0 0 0 0 0 0 0 0 0 0 0 0 4 0 7 39 62 44 0 0 0 0 0 21 96 257 526 569 843 756 650 667
0 0 42 168 164 78 17 0 0 0 0 0 0 0 0 0 0 0 0 0 0 19 13 21 17 11 42 53 61 29 0 0 0 0 13 63 88 716 511 607 869 615 564
0 0 0 34 57 48 0 0 0 0 0 0 0 0 0 0 0 0 0 4 5 6 14 10 4 6 25 43 73 41 11 0 0 0 0 49 68 573 481 433 911 637 580
0 0 0 1 9 0 0 0 0 5 0 0 0 0 0 0 0 0 0 6 7 3 5 0 0 0 0 11 3 0 0 0 0 0 0 38 138 488 441 359 392 583 580
0 0 0 0 0 0 0 0 2 3 4 0 0 0 0 0 0 0 0 15 3 0 0 0 0 0 0 0 10 0 0 0 0 0 0 246 316 573 404 297 327 391 274
0 0 0 0 0 0 0 0 0 5 9 0 0 0 0 4 0 0 3 8 0 0 0 0 0 0 1 1 10 20 0 0 0 21 300 376 580 442 384 476 333 269 439
0 0 0 0 0 0 0 0 7 2 0 0 0 6 15 15 13 11 0 0 0 0 0 0 0 0 12 19 34 32 44 55 30 90 265 422 506 412 301 259 285 290 244
0 0 0 0 0 0 0 7 3 8 0 0 0 16 38 10 8 0 0 0 0 0 0 0 0 0 14 19 30 34 101 232 260 157 319 471 455 303 327 471 479 361 404
0 0 0 0 0 0 3 3 2 0 3 0 0 36 52 27 1 4 0 0 0 0 0 0 0 0 0 19 60 38 5 47 55 161 194 318 362 311 316 599 410 369 312
0 0 0 0 0 1 5 0 0 0 0 0 0 1 0 0 8 13 6 0 0 0 0 0 0 0 2 1 31 24 16 0 83 128 175 226 405 272 378 499 321 242 82
0 0 0 0 0 4 0 0 0 0 0 0 0 0 0 0 8 2 1 0 0 0 0 0 0 3 10 18 57 96 49 112 33 26 135 165 346 386 433 338 148 99 13
0 0 0 0 0 0 0 0 0 0 0 0 0 0 0 0 6 0 0 0 0 0 0 0 0 0 13 19 44 77 113 100 136 101 26 169 248 359 317 270 136 45 13
0 0 0 0 0 0 0 0 0 0 0 0 0 0 0 0 7 0 0 0 0 0 0 0 0 0 2 9 34 30 65 43 89 150 152 224 224 285 230 198 112 59 14

GFSSE_con_mlcape_003.txt.gz
CAPE
0 0 116 129 85 2 0 0 0 0 0 0 0 0 0 0 0 0 0 0 0 0 0 0 0 0 0 0 0 0 0 0 0 16 258 456 346 143 279 196 182 658 497
0 0 94 149 72 0 0 0 0 0 0 0 0 0 0 0 0 0 0 0 0 0 0 0 0 0 0 0 0 0 0 0 0 0 1 206 190 276 251 308 196 472 456
0 0 122 209 111 6 0 0 0 0 0 0 0 0 0 0 0 0 0 0 0 0 0 0 0 0 0 0 0 0 0 0 0 0 0 23 174 235 294 339 268 237 206
0 0 91 181 90 58 30 9 16 1 0 1 0 0 0 0 0 0 0 0 0 0 0 25 44 12 1 1 1 0 1 3 0 0 0 0 24 192 317 431 263 288 172
0 3 83 168 112 110 62 81 111 127 90 48 32 9 2 0 0 0 17 68 26 1 0 66 171 127 78 1 3 3 0 0 0 0 0 0 0 124 397 334 241 217 146
0 74 124 166 173 196 153 161 227 235 189 155 122 141 112 153 208 211 261 232 207 121 56 93 2 28 211 190 88 15 6 1 0 0 1 0 0 139 396 368 254 292 158
0 94 225 310 234 215 263 355 387 273 220 290 404 436 461 516 475 468 479 334 242 252 211 140 17 27 54 107 158 163 57 25 8 15 8 0 0 0 240 588 298 222 258
24 28 374 499 317 282 416 558 558 445 456 576 603 734 674 787 715 617 538 510 447 361 296 222 43 21 41 47 59 70 124 60 45 39 8 0 0 0 278 496 615 463 315
119 103 380 710 561 526 476 536 608 562 521 610 720 823 822 707 453 127 40 38 74 160 226 202 71 41 55 59 69 129 81 79 48 56 24 2 0 25 446 597 725 531 340
161 234 368 539 781 815 877 810 645 621 533 518 936 812 335 5 0 0 0 0 0 1 3 4 9 60 79 47 53 70 86 72 32 24 34 4 0 0 421 636 809 638 292
88 226 297 409 636 847 809 1062 883 757 584 741 539 297 0 11 5 0 0 0 0 1 7 7 4 14 23 35 65 78 90 48 27 13 8 24 26 71 170 547 716 797 523
48 85 148 261 476 623 817 1016 987 860 546 529 426 166 194 172 45 0 0 0 0 11 119 133 142 39 103 26 30 64 46 42 56 11 0 62 3 118 149 475 600 787 847
58 66 99 217 444 574 812 951 1025 728 669 624 266 183 185 92 21 0 0 1 3 0 0 1 0 0 5 58 49 33 41 60 52 13 0 58 23 175 175 477 587 713 855
44 56 105 224 385 671 766 634 568 432 381 206 224 212 253 185 55 11 1 3 0 1 0 9 4 14 30 72 52 29 29 38 44 10 0 43 166 250 322 480 514 797 844
21 44 132 274 352 568 543 404 262 196 109 129 211 227 271 237 226 106 38 46 40 1 42 58 31 54 79 103 94 82 37 35 59 11 0 0 210 158 240 456 417 736 767
4 17 41 184 500 581 368 195 99 118 64 150 152 179 154 162 165 130 80 80 136 24 26 93 43 53 46 101 104 110 107 74 48 1 0 20 192 140 174 202 239 490 710
0 0 0 98 431 530 280 151 72 32 148 196 217 243 146 144 157 232 231 278 145 48 4 22 77 81 76 77 84 96 100 103 1 1 2 155 231 153 279 172 47 192 743
0 0 0 2 286 444 292 103 38 111 226 211 220 252 208 266 398 379 350 343 192 72 29 40 44 53 46 54 78 76 50 34 28 2 182 227 380 534 480 203 148 370 373
0 0 0 0 102 303 153 52 50 176 175 189 220 273 315 421 423 352 347 178 151 124 26 34 35 54 37 61 75 57 45 9 129 182 333 363 460 563 650 413 269 299 169
0 0 0 0 134 89 37 6 77 142 178 234 259 336 455 501 372 326 197 100 116 77 59 90 81 47 80 73 78 70 126 201 276 261 345 432 474 712 835 746 626 561 330
0 0 0 0 27 16 0 0 49 125 167 189 239 280 475 539 349 336 225 45 1 25 76 150 87 66 71 76 113 113 144 132 180 352 453 431 509 716 878 878 886 740 384
0 0 0 0 8 4 0 9 139 177 261 255 230 333 552 507 391 268 80 11 12 108 164 123 80 49 34 77 131 114 66 80 262 390 419 680 951 950 818 1145 963 832 502
0 0 0 3 9 1 0 41 50 82 82 99 90 198 222 104 120 211 104 57 133 162 125 85 52 30 26 84 90 219 77 17 158 499 651 572 775 949 861 880 900 666 329
0 0 0 6 11 0 7 15 33 181 75 1 21 62 85 38 128 178 183 151 274 201 113 84 53 40 37 60 151 89 59 442 57 245 575 572 743 834 775 766 759 453 347
0 0 0 3 0 5 9 30 131 89 3 0 4 17 45 73 103 49 158 187 143 153 144 54 22 65 148 79 137 47 249 311 557 318 270 611 739 772 620 669 530 265 146
0 0 0 0 9 21 40 53 149 46 0 0 0 0 1 16 22 77 32 117 121 174 64 38 102 90 140 94 91 52 138 287 519 421 332 556 400 673 570 469 291 116 74

GFSSE_con_mlcape_006.txt.gz
CAPE
0 56 82 30 4 0 0 0 0 0 0 0 0 0 0 0 0 0 0 0 0 0 0 0 0 0 0 0 0 0 0 0 0 38 254 483 287 201 327 324 421 510 389
0 61 127 74 6 0 0 0 0 0 0 0 0 0 0 0 0 0 0 0 0 0 0 0 0 0 0 0 0 0 0 0 0 0 0 148 188 300 308 386 308 574 404
0 78 146 107 25 0 0 0 0 0 0 0 0 0 0 0 0 0 0 0 0 0 0 0 0 3 0 0 0 0 0 0 0 0 0 0 460 297 441 461 472 465 338
0 111 119 191 87 15 2 0 0 0 0 0 0 0 0 0 0 0 0 0 0 0 0 3 90 36 10 2 0 0 0 0 0 0 0 0 6 234 375 609 591 402 343
0 77 153 227 111 74 29 0 0 0 0 0 0 0 0 0 0 0 0 0 48 50 35 5 132 294 153 46 4 0 0 0 0 0 0 0 0 106 380 636 571 319 251
0 16 177 336 184 106 75 17 19 28 20 69 71 58 38 52 37 39 94 129 202 192 102 84 88 198 137 222 184 50 0 0 0 0 0 4 0 40 132 685 462 372 196
25 59 124 463 328 151 187 134 124 146 248 323 255 210 286 295 318 471 474 544 507 301 282 252 292 141 133 58 112 93 154 9 2 1 7 2 0 0 42 576 622 353 232
45 146 253 827 669 273 295 293 284 342 488 370 316 367 554 594 689 738 730 648 581 506 445 400 292 243 57 99 71 61 37 43 67 19 43 8 3 0 7 454 918 416 386
57 130 377 890 989 715 409 498 485 443 469 456 427 699 808 917 943 613 287 127 112 141 259 342 328 229 84 52 79 91 162 47 39 53 76 63 8 0 17 521 735 500 437
119 101 163 537 802 637 589 1047 746 613 618 656 745 790 966 836 261 0 0 0 3 24 30 69 117 119 124 142 116 78 55 132 37 14 40 53 30 0 28 461 822 461 464
121 141 113 324 606 521 390 934 1278 1064 1034 917 772 890 613 40 76 134 2 0 0 0 0 10 13 30 34 50 50 48 74 12 35 22 38 47 14 11 14 107 632 593 482
121 122 206 403 572 563 274 607 1148 747 578 375 311 353 400 201 333 91 0 0 0 0 11 169 175 109 31 19 23 3 11 34 55 42 57 47 0 63 92 0 270 609 520
80 106 166 420 795 672 436 694 904 520 569 568 585 423 334 374 353 236 144 93 111 62 5 20 57 38 47 41 66 47 43 29 29 54 70 18 0 52 56 2 195 607 486
30 94 166 273 936 1019 558 762 565 540 579 562 452 465 436 450 380 335 178 80 96 14 5 20 30 22 28 43 62 63 30 51 55 49 66 1 9 88 128 78 239 551 561
20 70 205 357 828 1093 926 794 593 467 424 317 189 419 569 448 438 434 317 219 74 186 14 21 61 32 38 47 64 83 57 27 50 49 61 3 0 83 120 112 402 457 577
8 79 234 432 834 1104 1166 872 741 558 326 292 140 403 585 525 441 528 377 314 241 244 197 28 34 38 34 56 83 103 77 35 45 66 74 33 0 34 62 0 395 325 348
10 56 327 503 894 1256 1253 1033 671 430 308 144 321 644 671 684 578 694 552 554 493 420 426 69 16 48 28 31 66 57 121 121 94 74 33 5 15 27 0 43 145 72 132
29 35 225 404 781 1369 1226 1007 435 250 194 201 424 486 667 756 763 706 709 668 612 530 359 42 153 21 45 32 52 81 98 85 92 34 6 5 33 112 51 87 0 41 344
63 93 205 240 582 1310 1234 803 415 321 237 338 401 442 552 731 760 710 691 649 523 94 161 432 155 37 46 34 38 55 91 58 81 69 18 112 195 202 130 122 19 201 493
45 145 54 152 549 1295 1101 616 315 322 297 392 391 487 635 753 739 641 686 542 138 111 275 249 101 153 71 66 78 70 101 96 83 66 76 134 343 356 319 302 570 564 442
0 18 49 179 675 1000 685 321 161 171 220 262 409 661 800 764 682 592 566 436 374 154 20 81 201 165 127 146 196 147 109 143 167 97 100 271 439 397 662 695 881 896 794
0 24 164 379 877 674 305 86 75 108 139 251 460 743 783 709 604 533 493 370 185 30 99 182 165 157 125 147 160 147 74 134 116 93 299 449 616 524 674 770 898 861 1139
11 127 323 607 615 189 132 291 450 447 388 280 400 393 574 574 505 388 413 285 210 218 275 256 203 131 101 148 263 247 125 79 94 168 409 697 755 911 855 1165 1072 1088 1115
41 156 400 467 276 242 197 106 63 11 70 128 111 179 311 331 282 279 376 341 332 343 285 214 151 102 160 236 289 242 358 301 81 129 757 715 872 944 1122 1289 1101 866 597
49 198 332 323 258 267 163 125 124 114 133 95 18 228 313 318 200 137 346 329 374 324 374 265 205 192 191 306 188 216 257 430 409 115 401 684 776 976 1186 1110 862 692 423
43 196 247 255 237 241 171 229 245 383 229 25 77 107 146 227 154 156 152 234 368 383 413 271 253 254 371 400 349 282 496 532 189 370 477 743 772 775 902 895 698 465 183

GFSSE_con_mlcape_009.txt.gz
CAPE
33 135 86 8 0 0 0 0 0 0 0 0 0 0 0 0 0 0 0 0 0 0 0 0 0 0 0 0 0 0 0 0 0 61 211 450 399 403 508 559 825 899 386
20 149 75 0 0 0 0 0 0 0 0 0 0 0 0 0 0 0 0 0 0 0 0 0 0 0 0 0 0 0 0 0 0 0 0 62 447 417 467 596 489 620 360
28 142 57 23 0 0 0 0 0 0 0 0 0 0 0 0 0 0 0 0 0 0 0 0 1 0 0 0 0 0 0 0 0 0 0 0 270 544 406 681 581 584 420
54 165 91 59 29 26 0 0 0 0 0 0 0 0 0 0 0 0 0 0 0 0 0 0 2 85 23 0 0 0 0 0 0 0 0 0 0 579 503 504 487 562 430
29 297 170 90 86 80 38 0 0 0 0 0 0 0 0 0 0 0 3 0 0 69 63 54 19 185 291 122 8 0 0 0 0 0 0 0 0 131 357 405 624 361 448
39 307 389 276 118 114 92 1 0 0 0 0 0 0 0 8 18 39 58 99 100 129 243 219 156 109 308 169 178 95 0 0 0 0 0 0 0 64 175 533 479 576 277
40 97 717 427 144 140 133 33 25 0 0 16 33 56 97 109 116 145 275 452 470 494 452 328 338 207 192 118 84 133 45 71 2 17 0 4 2 0 0 173 657 663 366
46 42 190 749 370 186 225 109 71 34 42 109 218 232 248 311 466 724 739 783 719 651 568 499 274 187 61 149 126 73 44 10 23 52 44 89 26 0 0 1 734 565 421
34 34 83 1264 950 545 411 385 254 177 148 258 307 337 408 433 696 1024 781 576 328 236 213 217 304 371 278 194 107 99 77 94 0 16 59 107 74 1 0 11 687 757 480
76 45 106 250 1323 1037 618 957 723 457 313 381 324 439 518 537 883 624 25 1 3 27 43 51 99 151 258 238 186 165 118 61 0 0 48 97 78 0 0 0 707 696 663
21 102 80 98 438 783 394 684 1088 981 795 685 596 625 487 318 172 368 346 51 0 0 0 2 25 39 73 130 112 87 96 0 0 4 7 90 119 17 7 0 209 663 630
26 48 104 149 333 629 332 405 1308 842 811 695 429 299 880 431 316 461 292 20 0 0 0 3 135 168 117 16 22 46 19 0 1 7 44 92 48 20 0 89 1 409 563
1 55 110 308 463 611 502 369 1259 909 705 657 540 546 586 439 487 606 488 477 341 176 294 107 185 200 29 75 20 68 55 11 0 28 81 74 34 0 0 46 30 135 512
6 4 80 234 725 1025 558 360 646 902 689 592 720 911 696 517 619 654 431 386 411 274 238 52 23 64 59 24 26 39 70 27 20 29 57 17 9 0 0 62 70 110 501
3 3 28 329 964 1379 1276 507 749 747 558 718 608 620 685 573 654 598 626 581 413 275 334 111 43 56 41 10 29 48 59 31 69 35 47 41 6 0 0 74 126 192 639
0 7 33 382 963 1519 1478 1251 1162 1046 629 629 454 324 624 812 684 593 617 711 563 544 400 340 48 43 63 32 49 44 89 64 56 91 51 33 0 0 0 66 127 280 581
0 3 157 549 996 1584 1795 1592 1194 864 679 556 428 331 574 844 788 788 657 982 758 353 478 230 281 125 125 70 45 56 76 116 66 76 58 38 45 0 0 13 33 337 353
6 36 261 422 1086 1699 1852 1719 1234 804 751 331 298 460 856 907 855 815 860 997 832 807 681 637 189 177 222 34 28 41 77 87 97 119 55 52 37 129 40 18 4 173 113
0 119 368 695 880 1811 2076 1693 1374 1028 606 334 348 540 522 715 770 850 1053 858 818 755 675 434 260 314 203 63 38 139 128 106 87 71 80 22 30 77 126 69 0 0 36
25 273 671 765 1088 1911 1877 1893 1209 662 561 339 489 473 495 743 756 834 1020 932 750 695 431 274 370 295 188 133 93 77 142 152 77 46 69 31 40 25 153 303 108 0 125
115 314 756 1018 1002 1708 1794 1442 876 571 566 447 461 489 736 833 743 829 1014 784 588 587 511 394 309 99 164 257 220 169 139 127 132 32 32 49 69 73 244 245 623 427 800
294 598 739 680 1227 1687 1661 1206 666 502 427 450 391 589 812 749 750 666 860 623 606 533 299 203 219 145 117 269 196 194 121 103 74 41 57 38 145 272 294 372 226 758 1196
414 579 576 696 1168 1617 1162 785 466 401 456 531 343 492 624 652 582 657 553 493 524 409 325 311 289 235 244 145 243 240 145 24 19 78 83 184 284 584 491 580 790 960 1136
487 602 760 1063 1364 961 539 473 639 477 232 236 464 214 334 394 337 299 485 471 500 390 470 473 294 229 200 249 272 380 387 230 77 87 314 288 571 691 797 808 916 973 1041
514 682 1078 1132 643 495 508 497 345 193 264 231 85 318 569 634 414 236 416 384 331 549 625 593 385 268 284 311 386 309 253 411 70 251 164 433 611 692 998 946 1257 1189 1043
534 869 868 620 601 434 385 423 366 350 199 82 173 226 461 377 302 226 184 253 320 549 553 394 372 316 534 529 411 371 269 330 218 137 292 476 484 1009 906 1205 1012 784 717

GFSSE_con_mlcape_015.txt.gz
CAPE
5 1 0 0 0 0 0 0 0 0 0 0 0 0 0 0 0 0 0 0 0 0 0 0 0 0 0 0 0 0 0 0 0 0 32 241 451 483 478 344 728 772 534
0 21 7 0 0 0 0 0 0 0 0 0 0 0 0 0 0 0 0 0 0 0 0 0 0 0 0 0 0 0 0 0 0 0 0 0 23 505 394 284 713 608 522
11 0 0 0 0 0 0 0 0 0 0 0 0 0 0 0 0 0 0 0 0 0 0 0 0 0 0 0 0 0 0 0 0 0 0 0 0 0 511 245 441 642 398
4 0 0 0 0 0 0 0 0 0 0 0 0 0 0 0 0 0 0 0 0 0 0 0 0 0 4 3 0 0 0 0 0 0 0 0 0 0 179 263 341 465 457
6 0 0 0 0 0 0 0 0 0 0 0 0 0 0 0 0 0 0 0 0 0 14 43 41 22 8 278 122 23 0 0 0 0 0 0 0 0 94 198 323 268 512
111 0 0 0 0 0 0 0 0 0 0 0 0 0 0 0 0 0 0 0 0 0 36 122 216 185 146 139 193 179 102 25 8 0 0 0 0 373 278 230 379 265 373
87 6 0 0 0 0 0 0 0 0 0 0 0 0 2 11 16 33 66 119 161 283 350 402 427 341 278 268 321 267 127 183 150 5 0 0 1 55 35 0 187 557 439
5 39 14 0 0 0 0 0 0 0 0 0 4 0 16 20 17 33 120 266 478 556 569 537 511 537 467 270 194 227 220 133 62 27 14 21 83 132 33 0 0 304 503
32 82 199 4 0 0 0 0 0 0 0 1 15 24 42 38 54 88 147 437 656 481 289 220 237 237 366 342 342 241 305 219 70 0 0 5 133 41 20 2 5 126 475
152 225 287 246 97 0 0 0 0 0 1 32 54 56 84 125 107 83 125 440 342 181 26 24 41 48 116 327 350 430 372 359 190 25 0 0 164 91 8 1 17 90 530
92 253 424 340 190 69 0 21 0 21 78 218 152 164 274 231 100 67 318 589 399 262 129 89 23 0 19 178 315 513 494 306 193 47 0 0 112 158 113 47 24 79 486
0 224 300 391 258 284 78 7 34 78 346 492 337 308 325 181 32 121 333 760 499 384 209 144 0 0 27 35 28 258 333 154 183 52 3 22 8 199 310 44 29 109 377
0 21 484 351 361 379 287 280 184 98 274 570 321 300 283 147 178 344 295 444 384 379 125 87 50 7 22 90 63 38 205 136 85 53 0 4 47 163 248 211 32 1 148
0 0 345 473 561 563 401 274 316 196 210 238 285 350 330 341 583 487 423 435 392 279 137 70 180 130 39 206 176 80 231 120 171 92 5 32 254 168 186 133 128 86 33
0 0 17 571 760 758 470 544 639 568 574 523 413 456 486 510 623 421 258 351 450 349 292 242 226 170 183 207 22 20 96 71 156 84 40 167 76 39 175 275 199 162 80
0 0 3 328 780 900 655 653 708 748 822 735 857 746 665 576 571 430 568 759 579 423 364 253 257 148 29 0 16 21 8 5 36 47 212 256 65 33 33 74 189 260 185
10 0 2 290 542 740 762 639 839 972 982 983 868 902 878 768 698 555 706 645 690 647 521 377 251 273 117 5 41 37 8 19 22 42 94 117 70 52 23 9 55 177 347
1 0 0 306 492 665 866 954 882 1081 1097 1031 833 960 900 804 619 641 648 575 680 805 721 477 199 118 46 22 0 40 17 24 22 23 50 75 86 62 32 17 0 80 433
0 0 26 280 435 723 838 1177 1248 1120 993 816 649 586 744 586 605 678 649 594 603 862 740 510 421 329 88 33 3 23 13 16 30 37 31 42 46 26 60 61 0 0 390
0 0 27 171 536 984 1402 1231 1407 1341 1024 719 571 424 485 590 645 686 713 781 831 846 642 451 347 291 293 119 42 5 15 22 59 33 48 57 7 10 94 48 16 1 10
0 0 0 241 841 1433 1690 1580 1253 1315 1070 804 527 510 580 603 724 833 716 652 838 635 445 443 454 332 164 72 33 20 40 35 28 33 23 15 19 18 41 117 169 141 0
0 26 266 649 1128 1675 1706 1730 1436 1308 930 671 611 423 552 568 563 621 672 528 577 449 365 338 305 214 153 57 47 33 22 1 0 64 43 17 16 21 13 54 82 161 14
32 395 955 1365 1544 1798 1900 1774 1550 1168 795 567 480 404 424 499 594 547 418 416 390 285 159 191 242 207 84 39 17 7 5 0 0 0 23 27 31 13 11 72 166 289 201
447 919 1247 1757 1878 2006 1957 1709 1436 1031 743 568 506 540 548 574 320 283 270 263 227 165 199 212 257 201 170 61 27 26 24 28 28 0 10 32 40 19 48 72 55 174 300
776 955 1099 1744 1972 1908 1726 1427 1085 826 555 422 352 336 374 254 275 221 192 153 67 126 154 144 170 162 114 87 75 30 16 21 23 31 0 14 38 72 68 59 40 253 428
907 955 1217 1595 1672 1616 1385 811 438 400 358 304 160 137 200 243 177 57 9 1 3 9 79 244 93 50 55 97 56 34 15 0 2 32 5 0 22 47 45 50 53 75 301

GFSSE_con_mlcape_021.txt.gz
CAPE
0 0 52 0 0 0 0 0 0 0 0 0 0 0 0 0 0 0 0 0 0 0 0 0 0 0 0 0 0 0 0 0 0 0 0 17 249 375 283 280 237 464 773
0 2 42 0 0 0 0 0 0 0 0 0 0 0 0 0 0 0 0 0 0 0 0 0 0 0 0 0 0 0 0 0 0 0 0 0 0 13 467 440 273 259 816
1 0 61 0 0 0 0 0 0 0 0 0 0 0 0 0 0 0 0 0 0 0 0 0 0 0 0 0 0 0 0 0 0 0 0 0 0 0 0 555 449 227 621
24 0 0 0 0 0 0 0 0 0 0 0 0 0 0 0 0 0 0 0 0 0 0 0 0 0 0 0 7 0 0 0 0 0 0 0 0 0 0 470 389 471 303
54 0 0 0 0 0 0 0 0 0 0 0 0 0 0 0 0 0 0 0 0 0 0 0 0 0 0 4 152 95 27 10 5 2 0 0 0 0 0 0 536 441 410
0 0 0 0 0 0 0 0 0 0 0 0 0 0 0 0 0 0 0 0 0 0 0 21 80 73 80 78 73 287 312 153 84 20 3 0 0 3 146 353 510 562 422
0 0 0 0 0 0 0 0 0 0 0 0 0 0 0 0 0 0 0 0 0 19 40 104 169 252 378 324 312 321 333 401 322 160 41 21 15 33 676 276 572 549 594
0 0 0 0 0 0 0 0 0 0 0 0 0 0 0 0 0 6 16 29 46 102 237 364 484 575 532 472 380 422 491 529 380 216 126 44 36 72 594 477 412 381 457
0 0 0 0 0 0 0 0 0 0 0 0 0 0 0 7 14 32 46 57 127 296 544 602 640 577 524 417 410 469 471 556 533 177 13 11 41 304 664 273 197 198 225
3 0 0 0 0 0 0 0 0 0 0 0 0 0 12 31 48 63 65 64 190 455 628 631 401 397 373 312 307 345 430 593 565 410 152 10 21 218 770 275 201 227 315
52 0 0 0 2 0 0 5 9 0 0 0 0 33 70 107 99 69 81 51 224 469 528 472 313 233 230 221 161 271 423 429 412 398 272 160 91 111 662 352 89 196 240
103 101 64 26 5 0 0 0 43 38 74 53 37 93 202 145 96 61 72 115 271 545 583 577 366 270 269 29 0 193 275 349 368 293 202 210 362 255 277 439 189 31 160
1 86 149 128 26 0 0 0 22 24 21 84 66 71 254 180 166 236 72 113 446 721 716 632 423 364 115 0 0 0 3 107 176 231 200 188 368 309 387 513 445 188 86
0 1 104 206 152 23 0 0 0 33 21 43 89 81 127 119 72 80 56 25 344 521 605 521 342 191 62 48 13 58 14 6 92 166 192 365 323 293 469 646 585 251 134
0 0 8 137 196 154 23 0 7 51 3 57 154 176 170 76 20 46 47 62 265 382 458 401 246 119 87 101 76 72 134 114 176 215 169 310 443 368 265 541 677 344 184
0 0 0 31 152 282 181 27 29 102 53 97 253 271 241 117 27 40 37 180 288 292 325 312 290 200 170 189 162 79 143 35 24 160 77 157 231 237 333 705 622 370 193
0 0 0 0 56 229 317 266 180 138 156 194 273 368 287 180 64 49 34 283 347 286 320 303 238 210 253 159 130 92 72 5 11 11 7 94 97 228 345 238 232 466 328
0 0 0 0 7 139 333 448 425 383 326 269 335 379 316 231 84 87 132 413 472 387 447 383 294 339 344 247 164 81 39 22 21 25 3 9 61 248 326 205 176 149 133
0 0 0 0 0 81 418 525 478 551 541 458 404 409 343 237 184 171 260 524 435 554 495 424 371 372 443 300 173 148 103 71 13 0 0 3 35 138 154 134 77 16 14
0 0 0 0 0 193 500 494 472 603 668 602 560 536 442 363 300 362 339 477 420 507 495 484 545 477 382 142 103 135 100 62 19 6 3 7 13 36 27 40 31 28 21
0 0 0 0 10 253 389 449 567 678 723 713 725 754 738 657 704 596 550 521 453 486 501 535 545 397 180 36 38 19 37 46 44 31 6 5 19 29 35 35 24 39 78
0 0 0 0 3 81 354 558 652 729 646 657 752 849 877 890 741 650 653 474 451 502 574 455 241 81 23 0 1 0 16 26 33 42 33 17 23 21 11 16 29 47 49
0 0 0 0 4 84 394 592 609 562 520 672 788 915 926 845 766 720 388 487 498 455 370 130 1 0 0 0 0 15 14 5 1 2 24 22 9 4 11 9 19 35 48
0 0 0 0 12 306 549 679 762 769 846 658 830 679 571 565 653 486 478 395 327 191 38 0 0 0 0 0 0 6 0 0 0 3 12 6 20 13 10 21 18 13 30
0 0 0 29 326 636 854 833 808 702 517 439 426 330 243 274 464 431 303 169 21 0 0 0 0 0 0 2 2 0 0 0 8 4 3 2 11 16 10 14 13 17 74
43 213 616 678 833 1086 1084 876 810 667 529 401 271 263 241 202 182 130 30 0 0 0 0 0 0 0 2 2 2 0 0 0 7 14 11 1 6 7 11 26 16 13 0

GFSSE_con_mlcape_024.txt.gz
CAPE
0 0 40 9 0 0 0 0 0 0 0 0 0 0 0 0 0 0 0 0 0 0 0 0 0 0 0 0 0 0 0 0 0 0 0 3 173 498 478 390 453 471 744
0 5 46 3 0 0 0 0 0 0 0 0 0 0 0 0 0 0 0 0 0 0 0 0 0 0 0 0 0 0 0 0 0 0 0 0 0 48 586 573 566 572 439
0 0 25 0 0 0 0 0 0 0 0 0 0 0 0 0 0 0 0 0 0 0 0 0 0 0 0 0 0 0 0 0 0 0 0 0 0 0 0 786 674 436 430
0 9 0 0 0 0 0 0 0 0 0 0 0 0 0 0 0 0 0 0 0 0 0 0 0 0 0 0 0 0 0 0 0 0 0 0 0 0 0 0 834 639 287
0 50 0 0 0 0 0 0 0 0 0 0 0 0 0 0 0 0 0 0 0 0 0 0 0 0 0 0 0 25 0 0 0 3 0 0 0 0 0 13 744 660 464
12 20 0 0 0 0 0 0 0 0 0 0 0 0 0 0 0 0 0 0 0 0 0 0 0 0 0 0 0 194 431 258 136 35 0 0 0 2 105 335 274 737 689
19 12 0 0 0 0 0 0 0 0 0 0 0 0 0 0 0 0 0 1 4 7 44 98 151 212 294 361 373 359 298 385 469 193 104 17 10 31 248 346 111 495 673
24 22 0 2 0 0 0 0 0 0 0 0 0 0 0 0 0 0 5 23 46 72 103 166 254 367 425 440 507 465 519 535 496 339 210 69 14 74 505 830 583 407 611
1 0 0 1 0 1 0 0 0 0 0 0 0 0 0 0 0 0 13 45 84 150 226 383 574 688 459 391 418 472 546 595 582 429 172 12 4 110 631 841 503 409 333
0 0 0 1 0 0 1 0 0 0 0 0 0 0 0 0 0 0 25 87 196 313 428 580 609 504 349 338 346 377 364 386 537 492 382 191 26 125 603 748 384 289 280
49 25 5 0 26 12 3 66 55 19 17 8 2 3 1 17 14 27 96 69 194 409 622 729 594 384 238 202 189 190 250 283 336 419 421 371 312 175 394 794 617 220 122
58 85 35 14 13 26 22 8 68 50 62 74 61 65 56 32 22 37 115 108 119 395 649 654 573 406 260 108 13 7 144 235 323 347 302 338 523 481 356 514 570 252 203
4 61 79 65 30 7 1 0 3 23 8 83 65 73 130 81 82 162 63 152 143 398 625 811 706 479 222 82 1 3 0 14 119 189 224 339 424 448 499 383 529 479 342
0 0 83 123 104 52 25 1 1 11 14 32 57 98 60 60 34 82 17 20 62 282 522 596 456 383 197 101 29 8 37 3 18 77 131 337 399 542 570 420 599 516 397
0 0 0 26 55 53 40 3 0 0 7 15 67 122 108 86 0 30 20 6 17 127 389 516 466 299 163 68 48 81 50 89 117 154 165 281 261 295 687 592 806 531 541
0 0 0 0 2 71 50 22 5 0 23 35 46 119 177 120 2 0 0 13 4 66 320 381 347 241 145 78 107 99 113 77 158 124 168 205 168 225 468 502 683 812 538
0 0 0 0 0 12 19 31 16 2 31 40 73 180 121 148 6 0 0 0 5 64 238 205 204 168 175 124 206 184 122 80 85 0 17 16 52 221 158 186 181 421 355
0 0 0 0 0 0 10 72 48 10 53 69 101 211 223 209 43 0 0 0 0 63 273 209 220 255 219 256 303 241 167 117 96 47 39 21 16 69 140 238 205 176 373
0 0 0 0 0 0 7 127 184 103 109 133 203 287 333 265 132 31 4 0 4 212 250 241 282 257 298 324 372 308 182 140 76 62 48 33 19 65 164 264 183 138 188
0 0 0 0 0 0 1 147 256 269 290 222 243 352 351 333 232 143 52 58 78 402 322 320 348 261 323 339 165 54 53 73 84 81 46 24 4 42 87 112 198 149 96
0 0 0 0 0 0 0 51 212 314 405 446 415 390 419 370 284 169 147 75 290 401 417 369 341 395 273 5 0 0 0 7 43 56 25 23 4 30 41 37 44 28 24
0 0 0 0 0 0 10 153 316 391 393 473 526 580 563 475 297 226 132 170 375 357 380 352 324 233 39 0 0 0 0 0 0 21 39 33 29 18 42 33 41 30 34
0 0 0 0 0 0 97 266 304 348 332 480 645 724 686 534 429 392 375 378 390 359 386 323 216 59 0 0 0 0 0 0 0 0 52 67 51 32 32 20 28 50 60
0 0 0 0 0 0 120 293 349 319 330 523 681 741 726 587 559 469 446 467 367 331 362 182 1 0 0 0 0 0 0 0 0 0 17 13 17 6 5 9 24 38 49
0 0 0 0 0 0 120 280 386 470 402 454 626 728 700 555 584 531 456 296 365 241 54 0 0 0 0 0 0 0 0 0 13 32 11 0 1 0 0 0 18 30 34
1 10 10 0 0 89 313 399 469 533 456 612 692 762 426 290 348 326 320 291 97 0 0 0 0 0 0 0 0 0 0 0 22 22 20 14 7 7 4 2 11 16 36

GFSSE_con_mlcape_027.txt.gz
CAPE
0 0 33 2 0 0 0 0 0 0 0 0 5 11 7 0 0 0 0 0 0 0 0 0 0 0 0 0 0 0 0 0 0 0 0 24 264 589 529 544 585 702 597
0 125 13 0 0 0 0 0 0 0 0 0 0 0 0 0 0 0 0 0 0 0 0 0 0 0 0 0 0 0 0 0 0 0 0 0 0 96 563 680 628 785 509
2 45 0 0 0 0 0 0 0 0 0 0 0 0 0 0 0 0 0 0 0 0 0 0 0 0 0 0 0 0 0 0 0 0 0 0 0 0 0 801 940 805 621
19 0 12 0 0 0 0 0 0 0 0 0 0 0 0 0 0 0 0 0 0 0 0 0 0 0 0 0 0 0 0 0 0 0 0 0 0 0 0 96 923 850 665
35 16 26 0 0 0 0 0 0 0 0 0 0 0 0 0 0 0 0 0 0 0 0 0 0 0 0 0 0 0 0 0 0 0 0 0 0 0 7 122 574 952 582
24 22 6 0 0 0 0 0 0 0 0 0 0 0 0 0 0 0 0 0 0 0 0 0 0 0 0 0 1 138 389 262 81 0 0 0 0 0 19 209 489 851 723
92 222 78 16 0 0 0 0 0 0 0 0 0 0 0 0 0 0 0 0 0 14 27 38 62 154 212 233 283 292 269 297 275 285 204 100 0 12 99 360 276 612 633
120 195 138 186 16 0 0 0 0 0 0 0 0 0 0 0 0 0 0 0 15 48 121 213 254 295 339 383 462 427 343 411 225 304 355 193 28 26 245 625 374 374 535
234 179 109 212 91 30 0 0 0 0 0 0 0 0 0 0 0 0 0 3 44 122 207 255 338 542 761 627 481 318 331 437 480 421 313 89 2 12 331 781 752 640 543
166 186 130 121 245 124 77 28 0 0 0 0 0 0 0 0 0 0 12 33 86 174 289 383 533 645 511 348 362 364 333 296 166 294 500 419 67 53 351 843 683 394 411
33 67 60 26 125 91 61 135 52 35 0 7 2 12 20 35 49 55 44 57 139 323 438 529 680 743 473 299 211 195 192 45 58 101 196 452 363 247 279 590 786 421 368
27 65 60 54 39 109 32 99 188 169 90 97 65 108 101 165 170 102 142 103 207 433 615 795 850 676 388 314 198 54 80 140 106 109 96 361 426 480 448 427 721 553 309
0 1 65 133 153 150 113 112 123 208 160 219 180 248 259 288 228 223 205 271 280 408 680 833 841 734 532 429 205 143 101 19 81 128 139 244 328 375 473 557 520 681 470
0 0 11 64 137 166 137 89 84 91 138 112 182 319 249 265 238 276 231 240 420 306 643 977 914 918 775 558 340 205 235 168 131 296 418 272 386 537 608 589 506 682 401
0 0 0 1 8 80 129 124 106 92 96 110 118 281 246 177 146 253 280 191 211 258 457 895 945 921 749 555 379 317 330 342 501 442 476 335 310 394 343 781 656 686 732
0 0 0 0 3 21 20 90 99 104 122 137 119 213 266 167 202 219 242 129 27 1 227 674 933 909 761 528 409 391 450 489 505 598 580 600 368 206 344 734 615 927 893
0 0 0 0 0 0 0 12 103 117 104 139 138 222 301 212 265 269 183 105 65 6 14 547 721 804 702 608 517 549 638 677 614 592 576 502 400 172 349 295 672 814 1010
0 0 0 0 0 0 0 12 71 149 129 151 202 192 331 357 336 311 78 78 90 42 68 316 605 578 654 720 736 796 771 718 662 658 579 521 440 406 316 169 175 209 662
0 0 0 0 0 0 0 9 137 184 133 177 224 223 400 433 373 284 90 60 60 44 111 434 596 542 648 725 807 839 873 792 687 596 530 561 546 475 480 439 189 153 82
0 0 0 0 0 0 0 42 228 312 166 208 284 336 481 557 409 320 257 160 128 180 141 460 627 704 634 870 716 423 390 557 540 636 689 650 499 521 576 785 425 261 139
0 0 0 0 0 0 0 25 108 212 388 354 383 520 601 561 440 551 422 303 262 160 217 739 662 642 742 453 282 224 227 332 517 561 628 595 461 395 531 592 471 559 218
0 0 0 0 0 0 0 19 188 380 569 624 549 579 654 667 749 654 548 404 335 200 703 628 545 503 544 189 328 19 48 162 222 369 502 558 521 451 421 367 59 321 386
0 0 0 0 0 0 0 167 285 466 362 508 633 740 838 814 809 730 571 318 149 515 587 540 644 746 611 54 1 130 39 34 90 167 345 522 523 397 423 320 26 59 433
0 0 0 0 0 0 27 118 214 419 354 535 610 855 853 893 761 644 435 284 465 820 514 736 772 780 438 198 0 7 6 26 67 166 146 258 433 354 303 343 333 175 492
0 0 0 0 0 0 16 313 496 592 741 825 885 829 796 917 871 616 537 681 829 636 555 736 554 303 105 107 37 11 29 89 195 89 186 231 87 81 13 214 303 344 551
0 0 4 3 0 0 44 307 492 657 643 766 864 852 905 952 874 791 790 828 799 770 719 434 229 116 63 39 57 67 55 62 115 151 93 37 37 13 17 55 257 365 431

GFSSE_con_mlcape_030.txt.gz
CAPE
14 306 99 31 0 0 0 0 8 639 921 1057 1007 815 663 416 171 38 0 0 0 0 0 0 0 0 0 0 0 0 0 0 0 0 0 127 432 778 655 901 879 1016 687
39 141 92 13 0 0 0 0 0 9 236 674 722 599 316 60 0 0 0 0 0 0 0 0 0 0 0 0 0 0 0 0 0 0 0 0 109 163 733 777 801 941 628
67 91 77 8 0 0 0 0 0 0 0 0 30 37 0 0 0 0 0 0 0 0 0 0 0 0 0 0 0 0 0 0 0 0 0 0 0 58 67 818 1030 967 659
176 141 6 24 0 0 0 0 0 0 0 0 0 0 0 0 0 0 0 0 0 0 0 0 0 0 0 0 0 0 0 0 0 0 0 0 0 0 45 183 893 1011 923
344 234 1 0 0 0 0 0 0 0 0 0 0 0 0 0 0 0 0 0 0 0 0 0 0 0 0 0 0 0 0 0 0 0 0 0 0 0 9 249 679 1057 929
369 236 101 0 0 0 0 0 0 0 0 0 0 0 0 0 0 0 0 0 0 0 0 0 9 7 21 42 119 270 395 242 0 12 0 0 0 0 4 115 565 1037 888
314 290 288 118 33 1 0 0 0 0 0 0 0 0 0 0 0 0 0 0 0 0 8 14 36 64 55 104 155 232 238 241 296 354 231 63 0 0 10 312 480 813 874
298 357 236 392 187 66 0 0 0 0 0 0 0 0 0 0 0 0 0 0 2 37 88 118 143 273 376 435 593 651 501 428 314 292 463 380 65 0 86 381 642 209 707
537 788 667 496 261 229 82 0 0 0 0 0 0 0 0 0 0 0 0 0 44 115 196 286 327 385 474 677 712 573 541 541 319 444 386 355 70 0 186 898 841 713 751
614 634 601 512 255 82 60 57 0 0 0 0 0 0 0 0 0 0 0 13 92 202 248 306 372 545 807 612 502 423 366 284 11 149 420 484 111 0 215 820 946 842 764
273 537 698 475 440 162 4 53 117 60 3 0 0 0 9 1 31 15 8 48 118 234 284 408 558 682 626 387 343 300 223 127 141 143 149 565 442 247 188 543 883 663 435
183 302 562 763 573 418 66 3 281 19 28 7 1 10 25 5 21 15 44 142 139 301 427 602 814 920 549 425 503 191 233 338 259 130 108 327 321 466 439 430 691 767 435
0 0 232 593 852 564 296 59 140 243 114 89 44 81 76 23 53 76 104 167 180 279 429 615 773 722 634 540 350 279 246 156 111 104 121 132 159 401 605 620 575 807 692
0 0 0 507 1108 1121 592 430 299 231 271 198 146 214 152 183 211 193 117 212 196 172 201 710 828 873 926 784 571 376 387 320 166 270 460 263 221 363 488 568 653 652 784
0 0 0 50 803 1172 1323 776 746 509 354 411 216 266 275 198 289 289 180 169 254 224 337 765 757 919 1045 948 690 537 477 449 503 482 435 474 287 419 467 806 883 741 733
0 0 0 0 39 806 717 1000 1006 1078 640 567 468 242 609 295 368 253 278 260 264 321 257 532 812 908 1025 810 804 759 664 563 599 603 553 651 323 226 279 646 830 892 783
0 0 0 0 5 330 295 630 860 665 859 587 663 616 439 714 350 339 272 280 186 261 383 352 725 1197 871 796 778 879 861 722 720 763 775 653 675 325 123 462 739 804 865
0 0 0 0 0 0 56 167 353 343 575 622 589 703 635 805 617 551 243 307 133 260 333 215 844 623 773 750 864 769 940 699 709 820 849 766 701 651 411 299 353 664 886
0 0 0 0 0 0 0 50 262 576 695 548 581 752 762 800 874 556 452 291 399 256 244 369 349 550 677 1108 935 973 990 655 577 647 740 743 822 810 672 544 271 210 331
0 0 0 0 0 0 0 45 244 485 698 674 626 700 788 912 964 836 620 422 457 249 245 212 400 678 1210 843 983 622 585 583 449 534 611 610 669 748 840 658 606 155 133
0 0 0 0 0 0 0 6 358 524 749 733 634 774 844 984 942 951 763 656 539 273 205 450 630 1048 809 1118 930 422 325 370 539 491 565 588 615 683 707 697 588 626 237
0 0 0 0 0 0 0 152 419 784 788 907 784 902 995 968 1010 997 951 871 712 344 355 684 904 945 1140 998 734 484 68 159 422 427 472 485 502 606 669 598 601 647 515
0 0 0 0 0 0 0 203 948 960 1118 1128 1087 1039 883 1101 1101 1120 1227 1092 837 418 569 738 1389 863 782 865 811 351 68 26 157 277 432 528 552 777 743 580 485 622 730
0 0 0 0 0 0 4 174 834 913 881 1040 1151 911 1169 1263 1194 1095 1045 1154 950 381 599 1309 1023 828 1076 723 395 176 145 91 13 173 424 627 621 671 761 585 546 396 266
0 0 0 0 21 1 83 440 1060 957 1190 1328 1152 1305 1095 1029 1081 1155 1199 954 686 692 1497 941 1057 1102 947 334 137 118 81 75 141 124 221 512 492 594 586 658 622 269 10
0 0 0 322 566 134 349 934 1278 1334 1376 1412 1610 874 899 976 1080 1182 1070 1116 1227 1312 1304 1082 936 911 530 119 64 57 88 141 71 210 302 388 355 407 387 399 725 503 292

GFSSE_con_mlcape_033.txt.gz
CAPE
98 337 8 0 0 0 0 0 130 688 882 928 838 792 730 643 480 273 91 0 0 0 0 0 0 0 0 0 0 0 0 0 0 0 12 319 671 800 804 1151 1088 1108 904
70 383 0 0 0 0 0 0 189 549 909 983 969 891 745 605 338 83 0 0 0 0 0 0 0 0 0 0 0 0 0 0 0 0 0 5 346 418 859 861 1028 1106 1053
153 334 0 8 0 0 0 0 10 452 836 979 935 777 644 422 118 0 0 0 0 0 0 0 0 0 0 0 0 0 0 0 0 0 0 0 350 303 312 827 1088 920 823
429 267 0 14 6 0 0 0 0 70 517 628 727 566 308 70 2 0 0 0 0 0 0 0 0 0 0 0 0 0 0 0 0 0 0 0 0 7 233 327 811 807 724
435 342 40 0 0 0 0 0 0 0 20 111 209 141 22 0 0 0 0 0 0 0 0 0 0 0 0 0 0 0 0 0 0 0 0 0 0 0 107 366 741 920 516
425 338 249 0 8 0 0 0 0 0 0 0 0 0 0 0 0 0 0 0 0 0 0 0 6 0 3 48 101 225 325 226 52 344 0 0 0 0 0 155 518 1134 982
332 350 642 132 39 19 0 0 0 0 0 0 0 0 0 0 0 0 0 0 0 0 0 0 7 12 24 47 81 183 240 238 182 434 322 173 10 0 0 92 430 764 1177
211 323 750 441 91 105 8 0 0 0 0 0 0 0 0 0 0 0 0 0 0 3 21 37 55 120 178 256 442 656 680 547 340 351 443 494 149 0 0 39 533 565 942
151 331 718 1211 216 258 105 4 0 0 0 0 0 0 0 0 0 0 0 0 0 14 72 127 168 290 422 475 578 785 834 754 432 398 605 438 302 2 36 552 802 749 701
146 280 387 1236 254 91 90 156 0 0 0 0 0 0 0 0 0 0 0 0 5 58 151 290 391 496 557 857 790 642 498 443 106 84 333 555 203 47 13 621 1097 1115 1044
110 214 413 728 665 162 15 145 135 31 0 0 0 0 0 0 0 0 0 1 13 135 249 324 352 454 779 738 419 353 393 176 254 322 259 671 522 190 0 529 1014 923 834
116 167 442 826 878 616 103 90 348 28 11 3 0 0 0 0 0 0 0 5 46 147 277 292 261 442 720 446 696 388 309 375 511 270 362 626 545 429 188 286 761 933 550
48 102 172 1134 1273 960 589 129 599 460 161 91 62 12 48 0 0 22 39 37 132 153 197 362 619 674 604 679 464 676 545 395 200 155 469 304 172 211 463 554 577 818 870
1 0 0 99 1800 1640 870 504 219 386 636 285 197 159 104 89 55 120 85 120 195 164 187 383 545 739 725 1020 704 518 464 470 301 269 576 287 87 4 292 633 785 758 815
0 0 0 0 1120 1970 1761 842 763 598 582 709 456 419 393 155 157 144 218 159 300 168 259 521 764 1055 1261 1068 848 696 617 535 523 513 499 520 274 153 389 718 742 760 809
0 0 0 0 498 1855 1806 1591 1685 1567 838 895 848 862 727 360 319 290 387 336 267 329 333 428 727 931 1110 1099 1018 795 750 665 674 699 566 692 411 177 215 514 888 1029 971
0 0 0 20 132 974 1537 2089 1758 890 1379 910 924 1162 1307 970 620 649 590 489 317 425 507 624 867 886 1048 1176 868 955 935 978 856 822 829 577 685 372 199 191 532 930 1043
0 0 1 0 6 299 1306 1625 1245 747 614 674 871 930 1339 1503 1169 1098 615 610 540 501 601 526 573 554 1137 845 805 923 1146 983 891 938 639 609 866 718 493 315 246 644 948
0 0 2 13 5 41 312 321 418 678 659 482 545 803 1283 1371 1408 1260 918 687 782 575 487 542 467 772 757 791 759 1105 1344 1132 793 717 640 681 533 769 789 545 303 242 612
0 0 0 0 0 54 53 140 100 70 416 712 713 800 1143 1484 1286 1606 1141 986 855 641 507 492 477 681 597 682 873 1229 1022 1070 882 350 483 470 646 810 912 802 400 375 304
0 0 0 0 33 4 0 0 0 0 252 793 1048 1171 1218 1403 1422 1608 1253 1200 1070 691 655 630 646 726 842 1006 993 1056 939 677 630 544 342 555 586 709 820 817 654 842 259
0 0 0 1 29 146 28 18 0 141 377 825 1153 1228 1265 1317 1439 1486 1351 1248 1097 784 871 849 667 648 654 1415 1210 780 373 57 441 578 358 486 678 589 527 745 733 844 564
0 0 0 0 10 195 55 99 432 697 1299 1115 1266 1240 1419 1372 1460 1396 1324 1445 1420 956 763 868 874 703 1074 1353 1165 732 109 181 397 491 504 394 612 625 637 673 677 712 372
0 0 0 0 9 293 701 56 96 682 818 1079 1405 1470 1509 1417 1214 1340 1379 1335 1472 1138 870 858 869 987 1353 1136 891 611 508 244 132 202 472 573 646 703 882 711 689 643 436
0 0 0 0 16 94 266 60 16 809 916 1357 1431 1707 1296 1389 1452 1280 1418 1351 1287 1136 793 994 1479 1343 1065 864 481 443 165 107 144 122 73 541 724 726 777 729 489 514 644
0 0 0 0 1 98 589 796 976 1343 1402 1730 1545 1593 1730 1340 1335 1177 1250 1411 1266 928 1535 1616 1356 1281 1059 736 218 200 153 86 207 247 143 354 487 647 479 215 618 422 303

GFSSE_con_mlcape_036.txt.gz
CAPE
180 0 0 0 0 0 0 42 259 516 635 603 528 504 535 425 339 204 39 0 0 0 0 0 0 0 0 0 0 0 0 0 0 0 22 490 854 769 885 1269 1228 1205 827
189 0 0 0 0 0 0 26 185 499 720 671 617 660 667 544 374 159 0 0 0 0 0 0 0 0 0 0 0 0 0 0 0 0 0 20 391 770 897 919 1010 1225 1003
122 5 0 0 0 0 0 0 113 522 768 787 753 700 617 562 399 54 0 0 0 0 0 0 0 0 0 0 0 0 0 0 0 0 0 0 419 525 686 904 1080 940 700
154 4 0 0 0 0 0 0 69 303 668 746 689 612 570 458 130 0 0 0 0 0 0 0 0 0 0 0 0 0 0 0 0 0 0 0 18 255 275 528 883 933 673
253 3 4 0 0 0 0 0 2 113 468 622 568 497 494 234 1 0 0 0 0 0 0 0 0 0 0 0 0 0 0 0 0 0 0 0 0 173 248 494 830 943 533
352 23 83 0 0 0 0 0 0 0 61 187 243 230 234 45 0 0 0 0 0 0 0 0 0 0 0 0 0 100 196 206 230 337 583 0 0 0 26 162 633 1232 925
473 230 283 0 0 0 0 0 0 0 0 0 0 14 14 0 0 0 0 0 0 0 0 9 0 4 16 38 90 127 185 176 146 119 420 280 0 0 0 0 372 703 1356
462 491 577 90 2 0 0 0 0 0 0 0 0 0 0 0 0 0 0 0 0 0 1 20 4 12 32 73 199 402 604 555 355 305 503 605 187 4 0 0 86 669 939
376 808 821 344 2 6 0 0 0 0 0 0 0 0 0 0 0 0 0 0 0 0 3 28 16 62 151 243 303 405 633 692 528 288 312 557 321 270 7 0 97 540 803
234 714 1390 784 216 0 61 22 0 0 0 0 0 0 0 0 0 0 0 0 0 0 32 77 98 172 302 354 402 631 522 439 137 25 62 523 400 207 71 34 569 1082 879
54 200 1389 1610 681 72 63 114 38 0 0 0 0 0 0 0 0 0 0 0 0 0 83 122 183 471 523 526 592 308 246 228 160 222 341 527 353 336 227 172 666 1132 1247
182 177 647 1585 867 202 61 132 88 6 3 0 0 0 0 0 0 0 0 0 0 2 105 141 305 545 510 561 433 461 352 265 273 497 839 710 646 478 220 134 590 974 823
170 223 482 1229 1138 649 249 280 380 137 0 3 0 0 12 0 0 1 0 0 47 116 83 191 393 501 469 494 453 770 538 549 527 208 832 714 535 387 306 285 354 799 972
33 10 621 1305 1523 1345 962 719 793 494 277 121 44 13 11 24 2 2 4 46 25 121 59 136 306 406 469 741 575 986 888 688 456 465 858 544 295 163 60 251 576 587 820
0 0 84 1262 1586 1574 1199 1320 802 928 812 497 341 169 53 136 20 30 83 87 84 158 169 117 408 552 877 754 1095 899 667 653 695 627 827 520 293 165 109 101 399 795 803
9 5 0 84 1332 1904 1292 1214 1782 644 772 1110 745 571 272 168 225 131 80 169 282 217 301 224 519 616 950 1322 1370 1110 949 926 791 887 730 789 490 339 256 318 469 791 855
0 19 15 0 1674 1332 1378 1191 1158 2251 1089 1367 1231 987 752 579 322 189 292 206 162 500 339 337 421 1066 1464 1394 1042 1302 966 1006 974 837 932 881 651 502 291 186 371 528 862
0 0 0 0 94 621 1461 1720 1810 1236 1736 1823 1228 1500 1534 1041 626 687 427 538 506 309 468 740 511 641 815 926 1332 925 1349 1204 1082 861 673 850 846 601 316 297 299 336 510
0 10 63 79 79 961 1630 1758 1688 1784 1736 1397 1110 1386 1500 1730 1218 727 985 847 651 681 590 484 656 792 863 1157 1045 1159 1290 1291 1175 1064 1108 901 670 734 709 586 448 264 307
61 14 4 97 150 119 479 1394 1293 998 791 846 866 807 1311 1751 1868 1364 1206 1105 1204 679 668 780 599 509 579 1003 840 948 1157 1185 1004 961 776 706 589 464 429 643 464 452 232
6 0 0 0 1 22 60 248 277 187 134 332 915 1096 1138 1814 1876 1806 1448 1498 970 1111 752 615 652 497 837 770 978 904 1093 1109 955 1049 884 569 587 582 554 477 567 400 353
0 0 0 2 39 40 60 56 135 205 127 125 732 1298 1425 1972 1835 1801 1816 1327 1528 1160 849 815 612 610 820 807 656 935 717 782 814 1043 778 495 440 412 575 631 551 447 365
0 0 0 0 0 0 3 339 486 170 92 612 1314 1524 1555 1637 1958 1809 1802 1561 1513 1115 1010 829 956 616 636 842 1138 966 715 313 220 504 623 508 421 602 533 429 384 348 194
0 0 1 0 0 0 108 408 332 326 133 424 1620 1656 1609 1614 1749 1811 1776 1489 1738 1254 1140 1012 897 759 600 1022 1241 970 715 576 297 248 370 355 427 568 585 521 335 378 148
0 0 0 0 0 0 176 206 344 635 868 944 1160 1950 1773 1728 1761 1564 1516 1348 1580 1337 1021 1053 975 731 694 1304 1013 805 630 352 206 47 52 98 294 314 661 510 248 211 137
0 0 0 0 1 60 47 578 637 199 364 1177 2037 1942 1784 1632 1523 1117 1332 1254 1375 1221 1282 968 862 891 1316 1015 645 471 418 249 104 181 131 134 113 160 333 256 285 240 246